Location: Newark
(37.8333°N, 119.5000°W)
Time: 06:31:48
(UTC+00:00)

Vanguard 2 Rocket - Visible Passes

Search period start: 25 August 2019 00:00
Search period end: 04 September 2019 00:00
Orbit: 553 x 3327 km, 32.9° (Epoch: 24 August)

Date Brightness Start Highest point End Pass type
(mag) Time Alt. Az. Time Alt. Az. Time Alt. Az.
25 Aug 8.8 09:33:38 48° SE 09:33:38 48° SE 09:48:20 10° E visible
25 Aug 9.1 11:39:26 25° WSW 11:48:38 73° S 12:08:10 10° E visible
26 Aug 9.5 08:37:21 28° ESE 08:37:21 28° ESE 08:45:20 10° E visible
26 Aug 8.6 10:43:09 46° SW 10:47:28 67° SSE 11:05:23 10° E visible
26 Aug 9.5 12:50:11 10° W 13:04:21 72° S 13:24:37 10° ESE visible
27 Aug 10.2 07:41:04 12° E 07:41:04 12° E 07:42:06 10° E visible
27 Aug 8.5 09:46:52 58° SSE 09:46:52 58° SSE 10:02:32 10° E visible
27 Aug 9.1 11:52:40 20° W 12:02:42 74° S 12:22:12 10° E visible
28 Aug 9.2 08:50:38 36° ESE 08:50:38 36° ESE 08:59:44 10° E visible
28 Aug 8.6 10:56:26 42° WSW 11:01:30 72° S 11:19:28 10° E visible
29 Aug 10.0 07:54:25 16° E 07:54:25 16° E 07:57:01 10° E visible
29 Aug 8.3 10:00:13 65° S 10:00:46 65° SSE 10:16:39 10° E visible
29 Aug 9.1 12:06:01 16° W 12:16:48 71° S 12:36:06 10° ESE visible
30 Aug 8.9 09:04:02 43° ESE 09:04:02 43° ESE 09:13:57 10° E visible
30 Aug 8.7 11:09:50 37° WSW 11:15:35 72° S 11:33:29 10° ESE visible
31 Aug 9.8 08:07:54 19° E 08:07:54 19° E 08:11:28 10° E visible
31 Aug 8.2 10:13:42 66° SSW 10:14:50 70° S 10:30:44 10° E visible
31 Aug 9.2 12:19:31 13° W 12:30:52 64° SSW 12:49:47 10° ESE visible
01 Sep 8.7 09:17:37 48° ESE 09:17:37 48° ESE 09:28:05 10° E visible
01 Sep 8.7 11:23:25 32° W 11:29:42 68° S 11:47:21 10° ESE visible
02 Sep 9.7 08:21:34 22° E 08:21:34 22° E 08:25:43 10° E visible
02 Sep 8.1 10:27:23 63° SW 10:28:57 69° S 10:44:44 10° ESE visible
02 Sep 9.3 12:33:12 10° W 12:44:52 55° SSW 13:03:05 10° SE visible
03 Sep 8.6 09:31:24 52° ESE 09:31:24 52° ESE 09:42:10 10° E visible
03 Sep 8.8 11:37:14 29° W 11:43:49 60° SSW 12:00:59 10° ESE visible
